Year,Month,Day,Hour,Minute,Value (Times are PST for temperature in C)
2007,08,23,00,00,17.10
2007,08,23,00,01,17.10
2007,08,23,00,02,17.10
2007,08,23,00,03,17.10
2007,08,23,00,04,17.10
2007,08,23,00,05,17.10
2007,08,23,00,06,17.10
2007,08,23,00,07,17.10
2007,08,23,00,08,17.20
2007,08,23,00,09,17.20
2007,08,23,00,10,17.20
2007,08,23,00,11,17.20
2007,08,23,00,12,17.20
2007,08,23,00,13,17.20
2007,08,23,00,14,17.20
2007,08,23,00,15,17.20
2007,08,23,00,16,17.20
2007,08,23,00,17,17.20
2007,08,23,00,18,17.20
2007,08,23,00,19,17.10
2007,08,23,00,20,17.10
2007,08,23,00,21,17.00
2007,08,23,00,22,17.00
2007,08,23,00,23,16.90
2007,08,23,00,24,16.80
2007,08,23,00,25,16.80
2007,08,23,00,26,16.70
2007,08,23,00,27,16.70
2007,08,23,00,28,16.60
2007,08,23,00,29,16.60
2007,08,23,00,30,16.60
2007,08,23,00,31,16.50
2007,08,23,00,32,16.50
2007,08,23,00,33,16.50
2007,08,23,00,34,16.40
2007,08,23,00,35,16.40
2007,08,23,00,36,16.40
2007,08,23,00,37,16.40
2007,08,23,00,38,16.40
2007,08,23,00,39,16.40
2007,08,23,00,40,16.40
2007,08,23,00,41,16.40
2007,08,23,00,42,16.40
2007,08,23,00,43,16.30
2007,08,23,00,44,16.30
2007,08,23,00,45,16.30
2007,08,23,00,46,16.20
2007,08,23,00,47,16.20
2007,08,23,00,48,16.20
2007,08,23,00,49,16.20
2007,08,23,00,50,16.20
2007,08,23,00,51,16.20
2007,08,23,00,52,16.10
2007,08,23,00,53,16.10
2007,08,23,00,54,16.10
2007,08,23,00,55,16.10
2007,08,23,00,56,16.10
2007,08,23,00,57,16.10
2007,08,23,00,58,16.10
2007,08,23,00,59,16.00
2007,08,23,01,00,16.00
2007,08,23,01,01,16.00
2007,08,23,01,02,16.00
2007,08,23,01,03,15.90
2007,08,23,01,04,15.90
2007,08,23,01,05,15.90
2007,08,23,01,06,15.80
2007,08,23,01,07,15.80
2007,08,23,01,08,15.80
2007,08,23,01,09,15.80
2007,08,23,01,10,15.80
2007,08,23,01,11,15.80
2007,08,23,01,12,15.80
2007,08,23,01,13,15.80
2007,08,23,01,14,15.70
2007,08,23,01,15,15.70
2007,08,23,01,16,15.70
2007,08,23,01,17,15.70
2007,08,23,01,18,15.70
2007,08,23,01,19,15.70
2007,08,23,01,20,15.70
2007,08,23,01,21,15.70
2007,08,23,01,22,15.70
2007,08,23,01,23,15.70
2007,08,23,01,24,15.70
2007,08,23,01,25,15.70
2007,08,23,01,26,15.70
2007,08,23,01,27,15.60
2007,08,23,01,28,15.60
2007,08,23,01,29,15.60
2007,08,23,01,30,15.60
2007,08,23,01,31,15.50
2007,08,23,01,32,15.50
2007,08,23,01,33,15.40
2007,08,23,01,34,15.40
2007,08,23,01,35,15.40
2007,08,23,01,36,15.40
2007,08,23,01,37,15.40
2007,08,23,01,38,15.30
2007,08,23,01,39,15.30
2007,08,23,01,40,15.30
2007,08,23,01,41,15.30
2007,08,23,01,42,15.40
2007,08,23,01,43,15.30
2007,08,23,01,44,15.40
2007,08,23,01,45,15.40
2007,08,23,01,46,15.30
2007,08,23,01,47,15.30
2007,08,23,01,48,15.30
2007,08,23,01,49,15.30
2007,08,23,01,50,15.30
2007,08,23,01,51,15.30
2007,08,23,01,52,15.30
2007,08,23,01,53,15.30
2007,08,23,01,54,15.30
2007,08,23,01,55,15.30
2007,08,23,01,56,15.30
2007,08,23,01,57,15.30
2007,08,23,01,58,15.30
2007,08,23,01,59,15.30
2007,08,23,02,00,15.30
2007,08,23,02,01,15.30
2007,08,23,02,02,15.30
2007,08,23,02,03,15.30
2007,08,23,02,04,15.30
2007,08,23,02,05,15.30
2007,08,23,02,06,15.30
2007,08,23,02,07,15.30
2007,08,23,02,08,15.20
2007,08,23,02,09,15.20
2007,08,23,02,10,15.20
2007,08,23,02,11,15.10
2007,08,23,02,12,15.10
2007,08,23,02,13,15.10
2007,08,23,02,14,15.00
2007,08,23,02,15,15.00
2007,08,23,02,16,15.00
2007,08,23,02,17,15.00
2007,08,23,02,18,15.00
2007,08,23,02,19,15.00
2007,08,23,02,20,15.00
2007,08,23,02,21,15.00
2007,08,23,02,22,15.00
2007,08,23,02,23,14.90
2007,08,23,02,24,14.90
2007,08,23,02,25,14.90
2007,08,23,02,26,14.80
2007,08,23,02,27,14.80
2007,08,23,02,28,14.80
2007,08,23,02,29,14.70
2007,08,23,02,30,14.70
2007,08,23,02,31,14.70
2007,08,23,02,32,14.70
2007,08,23,02,33,14.60
2007,08,23,02,34,14.60
2007,08,23,02,35,14.60
2007,08,23,02,36,14.60
2007,08,23,02,37,14.60
2007,08,23,02,38,14.50
2007,08,23,02,39,14.50
2007,08,23,02,40,14.50
2007,08,23,02,41,14.50
2007,08,23,02,42,14.40
2007,08,23,02,43,14.40
2007,08,23,02,44,14.40
2007,08,23,02,45,14.40
2007,08,23,02,46,14.40
2007,08,23,02,47,14.40
2007,08,23,02,48,14.40
2007,08,23,02,49,14.40
2007,08,23,02,50,14.30
2007,08,23,02,51,14.30
2007,08,23,02,52,14.30
2007,08,23,02,53,14.30
2007,08,23,02,54,14.30
2007,08,23,02,55,14.30
2007,08,23,02,56,14.30
2007,08,23,02,57,14.20
2007,08,23,02,58,14.20
2007,08,23,02,59,14.20
2007,08,23,03,00,14.20
2007,08,23,03,01,14.10
2007,08,23,03,02,14.10
2007,08,23,03,03,14.10
2007,08,23,03,04,14.10
2007,08,23,03,05,14.00
2007,08,23,03,06,14.00
2007,08,23,03,07,14.00
2007,08,23,03,08,14.00
2007,08,23,03,09,14.00
2007,08,23,03,10,13.90
2007,08,23,03,11,13.90
2007,08,23,03,12,13.90
2007,08,23,03,13,13.90
2007,08,23,03,14,13.90
2007,08,23,03,15,13.90
2007,08,23,03,16,13.80
2007,08,23,03,17,13.80
2007,08,23,03,18,13.80
2007,08,23,03,19,13.80
2007,08,23,03,20,13.80
2007,08,23,03,21,13.80
2007,08,23,03,22,13.80
2007,08,23,03,23,13.70
2007,08,23,03,24,13.70
2007,08,23,03,25,13.70
2007,08,23,03,26,13.70
2007,08,23,03,27,13.70
2007,08,23,03,28,13.70
2007,08,23,03,29,13.70
2007,08,23,03,30,13.70
2007,08,23,03,31,13.60
2007,08,23,03,32,13.60
2007,08,23,03,33,13.60
2007,08,23,03,34,13.60
2007,08,23,03,35,13.60
2007,08,23,03,36,13.60
2007,08,23,03,37,13.60
2007,08,23,03,38,13.60
2007,08,23,03,39,13.50
2007,08,23,03,40,13.50
2007,08,23,03,41,13.50
2007,08,23,03,42,13.50
2007,08,23,03,43,13.50
2007,08,23,03,44,13.40
2007,08,23,03,45,13.40
2007,08,23,03,46,13.40
2007,08,23,03,47,13.40
2007,08,23,03,48,13.40
2007,08,23,03,49,13.40
2007,08,23,03,50,13.40
2007,08,23,03,51,13.30
2007,08,23,03,52,13.30
2007,08,23,03,53,13.30
2007,08,23,03,54,13.30
2007,08,23,03,55,13.30
2007,08,23,03,56,13.30
2007,08,23,03,57,13.30
2007,08,23,03,58,13.30
2007,08,23,03,59,13.20
2007,08,23,04,00,13.20
2007,08,23,04,01,13.20
2007,08,23,04,02,13.20
2007,08,23,04,03,13.20
2007,08,23,04,04,13.20
2007,08,23,04,05,13.20
2007,08,23,04,06,13.20
2007,08,23,04,07,13.20
2007,08,23,04,08,13.20
2007,08,23,04,09,13.20
2007,08,23,04,10,13.20
2007,08,23,04,11,13.20
2007,08,23,04,12,13.10
2007,08,23,04,13,13.10
2007,08,23,04,14,13.10
2007,08,23,04,15,13.10
2007,08,23,04,16,13.10
2007,08,23,04,17,13.10
2007,08,23,04,18,13.10
2007,08,23,04,19,13.10
2007,08,23,04,20,13.10
2007,08,23,04,21,13.10
2007,08,23,04,22,13.10
2007,08,23,04,23,13.10
2007,08,23,04,24,13.10
2007,08,23,04,25,13.10
2007,08,23,04,26,13.10
2007,08,23,04,27,13.10
2007,08,23,04,28,13.20
2007,08,23,04,29,13.20
2007,08,23,04,30,13.20
2007,08,23,04,31,13.20
2007,08,23,04,32,13.20
2007,08,23,04,33,13.20
2007,08,23,04,34,13.20
2007,08,23,04,35,13.20
2007,08,23,04,36,13.20
2007,08,23,04,37,13.20
2007,08,23,04,38,13.20
2007,08,23,04,39,13.20
2007,08,23,04,40,13.20
2007,08,23,04,41,13.20
2007,08,23,04,42,13.10
2007,08,23,04,43,13.10
2007,08,23,04,44,13.10
2007,08,23,04,45,13.10
2007,08,23,04,46,13.10
2007,08,23,04,47,13.10
2007,08,23,04,48,13.10
2007,08,23,04,49,13.10
2007,08,23,04,50,13.10
2007,08,23,04,51,13.00
2007,08,23,04,52,13.00
2007,08,23,04,53,13.00
2007,08,23,04,54,13.00
2007,08,23,04,55,13.00
2007,08,23,04,56,13.00
2007,08,23,04,57,13.00
2007,08,23,04,58,13.00
2007,08,23,04,59,12.90
2007,08,23,05,00,12.90
2007,08,23,05,01,12.90
2007,08,23,05,02,12.90
2007,08,23,05,03,12.90
2007,08,23,05,04,12.90
2007,08,23,05,05,12.90
2007,08,23,05,06,12.90
2007,08,23,05,07,12.90
2007,08,23,05,08,12.90
2007,08,23,05,09,12.90
2007,08,23,05,10,12.90
2007,08,23,05,11,12.90
2007,08,23,05,12,12.90
2007,08,23,05,13,12.90
2007,08,23,05,14,12.90
2007,08,23,05,15,12.80
2007,08,23,05,16,12.80
2007,08,23,05,17,12.80
2007,08,23,05,18,12.80
2007,08,23,05,19,12.80
2007,08,23,05,20,12.80
2007,08,23,05,21,12.80
2007,08,23,05,22,12.80
2007,08,23,05,23,12.80
2007,08,23,05,24,12.80
2007,08,23,05,25,12.80
2007,08,23,05,26,12.80
2007,08,23,05,27,12.80
2007,08,23,05,28,12.70
2007,08,23,05,29,12.70
2007,08,23,05,30,12.70
2007,08,23,05,31,12.70
2007,08,23,05,32,12.70
2007,08,23,05,33,12.70
2007,08,23,05,34,12.70
2007,08,23,05,35,12.70
2007,08,23,05,36,12.70
2007,08,23,05,37,12.70
2007,08,23,05,38,12.70
2007,08,23,05,39,12.70
2007,08,23,05,40,12.70
2007,08,23,05,41,12.60
2007,08,23,05,42,12.60
2007,08,23,05,43,12.60
2007,08,23,05,44,12.60
2007,08,23,05,45,12.60
2007,08,23,05,46,12.60
2007,08,23,05,47,12.60
2007,08,23,05,48,12.60
2007,08,23,05,49,12.50
2007,08,23,05,50,12.50
2007,08,23,05,51,12.50
2007,08,23,05,52,12.50
2007,08,23,05,53,12.50
2007,08,23,05,54,12.50
2007,08,23,05,55,12.50
2007,08,23,05,56,12.50
2007,08,23,05,57,12.40
2007,08,23,05,58,12.40
2007,08,23,05,59,12.40
2007,08,23,06,00,12.40
2007,08,23,06,01,12.40
2007,08,23,06,02,12.40
2007,08,23,06,03,12.40
2007,08,23,06,04,12.40
2007,08,23,06,05,12.40
2007,08,23,06,06,12.40
2007,08,23,06,07,12.40
2007,08,23,06,08,12.40
2007,08,23,06,09,12.40
2007,08,23,06,10,12.40
2007,08,23,06,11,12.40
2007,08,23,06,12,12.40
2007,08,23,06,13,12.40
2007,08,23,06,14,12.40
2007,08,23,06,15,12.40
2007,08,23,06,16,12.40
2007,08,23,06,17,12.40
2007,08,23,06,18,12.40
2007,08,23,06,19,12.40
2007,08,23,06,20,12.40
2007,08,23,06,21,12.40
2007,08,23,06,22,12.40
2007,08,23,06,23,12.40
2007,08,23,06,24,12.30
2007,08,23,06,25,12.30
2007,08,23,06,26,12.30
2007,08,23,06,27,12.30
2007,08,23,06,28,12.30
2007,08,23,06,29,12.30
2007,08,23,06,30,12.30
2007,08,23,06,31,12.30
2007,08,23,06,32,12.30
2007,08,23,06,33,12.30
2007,08,23,06,34,12.30
2007,08,23,06,35,12.30
2007,08,23,06,36,12.30
2007,08,23,06,37,12.30
2007,08,23,06,38,12.30
2007,08,23,06,39,12.30
2007,08,23,06,40,12.30
2007,08,23,06,41,12.30
2007,08,23,06,42,12.30
2007,08,23,06,43,12.30
2007,08,23,06,44,12.40
2007,08,23,06,45,12.40
2007,08,23,06,46,12.40
2007,08,23,06,47,12.40
2007,08,23,06,48,12.40
2007,08,23,06,49,12.40
2007,08,23,06,50,12.40
2007,08,23,06,51,12.40
2007,08,23,06,52,12.40
2007,08,23,06,53,12.40
2007,08,23,06,54,12.40
2007,08,23,06,55,12.40
2007,08,23,06,56,12.40
2007,08,23,06,57,12.50
2007,08,23,06,58,12.50
2007,08,23,06,59,12.50
2007,08,23,07,00,12.50
2007,08,23,07,01,12.50
2007,08,23,07,02,12.50
2007,08,23,07,03,12.50
2007,08,23,07,04,12.60
2007,08,23,07,05,12.60
2007,08,23,07,06,12.60
2007,08,23,07,07,12.60
2007,08,23,07,08,12.70
2007,08,23,07,09,12.70
2007,08,23,07,10,12.70
2007,08,23,07,11,12.70
2007,08,23,07,12,12.70
2007,08,23,07,13,12.70
2007,08,23,07,14,12.80
2007,08,23,07,15,12.80
2007,08,23,07,16,12.80
2007,08,23,07,17,12.80
2007,08,23,07,18,12.80
2007,08,23,07,19,12.80
2007,08,23,07,20,12.80
2007,08,23,07,21,12.80
2007,08,23,07,22,12.90
2007,08,23,07,23,12.90
2007,08,23,07,24,12.90
2007,08,23,07,25,13.00
2007,08,23,07,26,13.10
2007,08,23,07,27,13.10
2007,08,23,07,28,13.10
2007,08,23,07,29,13.20
2007,08,23,07,30,13.20
2007,08,23,07,31,13.20
2007,08,23,07,32,13.30
2007,08,23,07,33,13.30
2007,08,23,07,34,13.30
2007,08,23,07,35,13.40
2007,08,23,07,36,13.40
2007,08,23,07,37,13.50
2007,08,23,07,38,13.50
2007,08,23,07,39,13.60
2007,08,23,07,40,13.60
2007,08,23,07,41,13.60
2007,08,23,07,42,13.70
2007,08,23,07,43,13.70
2007,08,23,07,44,13.80
2007,08,23,07,45,13.80
2007,08,23,07,46,13.80
2007,08,23,07,47,13.80
2007,08,23,07,48,13.90
2007,08,23,07,49,13.90
2007,08,23,07,50,14.00
2007,08,23,07,51,14.00
2007,08,23,07,52,14.10
2007,08,23,07,53,14.10
2007,08,23,07,54,14.20
2007,08,23,07,55,14.20
2007,08,23,07,56,14.20
2007,08,23,07,57,14.30
2007,08,23,07,58,14.30
2007,08,23,07,59,14.40
2007,08,23,08,00,14.40
2007,08,23,08,01,14.50
2007,08,23,08,02,14.50
2007,08,23,08,03,14.60
2007,08,23,08,04,14.70
2007,08,23,08,05,14.80
2007,08,23,08,06,14.90
2007,08,23,08,07,14.90
2007,08,23,08,08,15.00
2007,08,23,08,09,15.00
2007,08,23,08,10,15.00
2007,08,23,08,11,15.00
2007,08,23,08,12,15.10
2007,08,23,08,13,15.20
2007,08,23,08,14,15.30
2007,08,23,08,15,15.40
2007,08,23,08,16,15.40
2007,08,23,08,17,15.50
2007,08,23,08,18,15.60
2007,08,23,08,19,15.60
2007,08,23,08,20,15.70
2007,08,23,08,21,15.80
2007,08,23,08,22,15.90
2007,08,23,08,23,16.00
2007,08,23,08,24,16.10
2007,08,23,08,25,16.20
2007,08,23,08,26,16.20
2007,08,23,08,27,16.30
2007,08,23,08,28,16.40
2007,08,23,08,29,16.50
2007,08,23,08,30,16.50
2007,08,23,08,31,16.60
2007,08,23,08,32,16.70
2007,08,23,08,33,16.80
2007,08,23,08,34,16.80
2007,08,23,08,35,16.90
2007,08,23,08,36,16.90
2007,08,23,08,37,17.00
2007,08,23,08,38,17.10
2007,08,23,08,39,17.20
2007,08,23,08,40,17.30
2007,08,23,08,41,17.30
2007,08,23,08,42,17.40
2007,08,23,08,43,17.60
2007,08,23,08,44,17.70
2007,08,23,08,45,17.90
2007,08,23,08,46,18.00
2007,08,23,08,47,18.10
2007,08,23,08,48,18.20
2007,08,23,08,49,18.30
2007,08,23,08,50,18.40
2007,08,23,08,51,18.50
2007,08,23,08,52,18.60
2007,08,23,08,53,18.70
2007,08,23,08,54,18.80
2007,08,23,08,55,18.90
2007,08,23,08,56,18.90
2007,08,23,08,57,19.00
2007,08,23,08,58,19.00
2007,08,23,08,59,19.10
2007,08,23,09,00,19.10
2007,08,23,09,01,19.10
2007,08,23,09,02,19.10
2007,08,23,09,03,19.10
2007,08,23,09,04,19.20
2007,08,23,09,05,19.20
2007,08,23,09,06,19.20
2007,08,23,09,07,19.20
2007,08,23,09,08,19.20
2007,08,23,09,09,19.20
2007,08,23,09,10,19.20
2007,08,23,09,11,19.20
2007,08,23,09,12,19.10
2007,08,23,09,13,19.10
2007,08,23,09,14,19.10
2007,08,23,09,15,19.10
2007,08,23,09,16,19.00
2007,08,23,09,17,18.90
2007,08,23,09,18,18.90
2007,08,23,09,19,18.90
2007,08,23,09,20,18.90
2007,08,23,09,21,18.80
2007,08,23,09,22,18.80
2007,08,23,09,23,18.80
2007,08,23,09,24,18.80
2007,08,23,09,25,18.80
2007,08,23,09,26,18.80
2007,08,23,09,27,18.80
2007,08,23,09,28,18.80
2007,08,23,09,29,18.80
2007,08,23,09,30,18.90
2007,08,23,09,31,18.90
2007,08,23,09,32,18.90
2007,08,23,09,33,18.90
2007,08,23,09,34,18.90
2007,08,23,09,35,18.90
2007,08,23,09,36,18.90
2007,08,23,09,37,18.90
2007,08,23,09,38,18.90
2007,08,23,09,39,18.90
2007,08,23,09,40,18.90
2007,08,23,09,41,18.90
2007,08,23,09,42,18.90
2007,08,23,09,43,18.90
2007,08,23,09,44,19.00
2007,08,23,09,45,19.00
2007,08,23,09,46,19.00
2007,08,23,09,47,19.10
2007,08,23,09,48,19.10
2007,08,23,09,49,19.20
2007,08,23,09,50,19.20
2007,08,23,09,51,19.20
2007,08,23,09,52,19.20
2007,08,23,09,53,19.20
2007,08,23,09,54,19.30
2007,08,23,09,55,19.30
2007,08,23,09,56,19.30
2007,08,23,09,57,19.30
2007,08,23,09,58,19.30
2007,08,23,09,59,19.40
2007,08,23,10,00,19.40
2007,08,23,10,01,19.40
2007,08,23,10,02,19.40
2007,08,23,10,03,19.40
2007,08,23,10,04,19.40
2007,08,23,10,05,19.40
2007,08,23,10,06,19.40
2007,08,23,10,07,19.40
2007,08,23,10,08,19.40
2007,08,23,10,09,19.50
2007,08,23,10,10,19.50
2007,08,23,10,11,19.60
2007,08,23,10,12,19.60
2007,08,23,10,13,19.50
2007,08,23,10,14,19.50
2007,08,23,10,15,19.40
2007,08,23,10,16,19.40
2007,08,23,10,17,19.30
2007,08,23,10,18,19.20
2007,08,23,10,19,19.20
2007,08,23,10,20,19.30
2007,08,23,10,21,19.30
2007,08,23,10,22,19.40
2007,08,23,10,23,19.40
2007,08,23,10,24,19.50
2007,08,23,10,25,19.60
2007,08,23,10,26,19.70
2007,08,23,10,27,19.70
2007,08,23,10,28,19.70
2007,08,23,10,29,19.70
2007,08,23,10,30,19.80
2007,08,23,10,31,19.80
2007,08,23,10,32,19.80
2007,08,23,10,33,19.90
2007,08,23,10,34,20.00
2007,08,23,10,35,20.00
2007,08,23,10,36,20.10
2007,08,23,10,37,20.20
2007,08,23,10,38,20.30
2007,08,23,10,39,20.30
2007,08,23,10,40,20.20
2007,08,23,10,41,20.10
2007,08,23,10,42,20.00
2007,08,23,10,43,19.90
2007,08,23,10,44,19.80
2007,08,23,10,45,19.90
2007,08,23,10,46,19.90
2007,08,23,10,47,19.90
2007,08,23,10,48,19.90
2007,08,23,10,49,19.90
2007,08,23,10,50,19.90
2007,08,23,10,51,19.80
2007,08,23,10,52,19.70
2007,08,23,10,53,19.70
2007,08,23,10,54,19.70
2007,08,23,10,55,19.70
2007,08,23,10,56,19.80
2007,08,23,10,57,19.80
2007,08,23,10,58,19.80
2007,08,23,10,59,19.90
2007,08,23,11,00,19.90
2007,08,23,11,01,20.00
2007,08,23,11,02,20.00
2007,08,23,11,03,19.90
2007,08,23,11,04,19.80
2007,08,23,11,05,19.80
2007,08,23,11,06,19.70
2007,08,23,11,07,19.80
2007,08,23,11,08,19.60
2007,08,23,11,09,19.40
2007,08,23,11,10,19.30
2007,08,23,11,11,19.20
2007,08,23,11,12,19.20
2007,08,23,11,13,19.20
2007,08,23,11,14,19.20
2007,08,23,11,15,19.20
2007,08,23,11,16,19.20
2007,08,23,11,17,19.20
2007,08,23,11,18,19.20
2007,08,23,11,19,19.20
2007,08,23,11,20,19.20
2007,08,23,11,21,19.20
2007,08,23,11,22,19.30
2007,08,23,11,23,19.30
2007,08,23,11,24,19.40
2007,08,23,11,25,19.40
2007,08,23,11,26,19.50
2007,08,23,11,27,19.50
2007,08,23,11,28,19.40
2007,08,23,11,29,19.40
2007,08,23,11,30,19.40
2007,08,23,11,31,19.40
2007,08,23,11,32,19.40
2007,08,23,11,33,19.40
2007,08,23,11,34,19.40
2007,08,23,11,35,19.40
2007,08,23,11,36,19.50
2007,08,23,11,37,19.50
2007,08,23,11,38,19.60
2007,08,23,11,39,19.60
2007,08,23,11,40,19.50
2007,08,23,11,41,19.50
2007,08,23,11,42,19.40
2007,08,23,11,43,19.30
2007,08,23,11,44,19.30
2007,08,23,11,45,19.20
2007,08,23,11,46,19.10
2007,08,23,11,47,19.10
2007,08,23,11,48,18.90
2007,08,23,11,49,18.80
2007,08,23,11,50,18.80
2007,08,23,11,51,18.80
2007,08,23,11,52,18.90
2007,08,23,11,53,18.90
2007,08,23,11,54,18.90
2007,08,23,11,55,18.90
2007,08,23,11,56,18.90
2007,08,23,11,57,18.90
2007,08,23,11,58,19.00
2007,08,23,11,59,19.10
2007,08,23,12,00,19.10
2007,08,23,12,01,19.10
2007,08,23,12,02,19.20
2007,08,23,12,03,19.20
2007,08,23,12,04,19.20
2007,08,23,12,05,19.30
2007,08,23,12,06,19.20
2007,08,23,12,07,19.20
2007,08,23,12,08,19.20
2007,08,23,12,09,19.30
2007,08,23,12,10,19.30
2007,08,23,12,11,19.30
2007,08,23,12,12,19.30
2007,08,23,12,13,19.40
2007,08,23,12,14,19.40
2007,08,23,12,15,19.50
2007,08,23,12,16,19.50
2007,08,23,12,17,19.50
2007,08,23,12,18,19.60
2007,08,23,12,19,19.60
2007,08,23,12,20,19.60
2007,08,23,12,21,19.70
2007,08,23,12,22,19.70
2007,08,23,12,23,19.80
2007,08,23,12,24,19.80
2007,08,23,12,25,19.90
2007,08,23,12,26,19.90
2007,08,23,12,27,19.90
2007,08,23,12,28,20.00
2007,08,23,12,29,20.00
2007,08,23,12,30,20.10
2007,08,23,12,31,20.10
2007,08,23,12,32,20.10
2007,08,23,12,33,20.10
2007,08,23,12,34,20.10
2007,08,23,12,35,20.00
2007,08,23,12,36,19.90
2007,08,23,12,37,19.80
2007,08,23,12,38,19.80
2007,08,23,12,39,19.80
2007,08,23,12,40,19.90
2007,08,23,12,41,19.90
2007,08,23,12,42,20.00
2007,08,23,12,43,20.10
2007,08,23,12,44,20.00
2007,08,23,12,45,20.10
2007,08,23,12,46,20.20
2007,08,23,12,47,20.20
2007,08,23,12,48,20.30
2007,08,23,12,49,20.20
2007,08,23,12,50,20.10
2007,08,23,12,51,19.90
2007,08,23,12,52,19.80
2007,08,23,12,53,19.70
2007,08,23,12,54,19.60
2007,08,23,12,55,19.60
2007,08,23,12,56,19.60
2007,08,23,12,57,19.60
2007,08,23,12,58,19.60
2007,08,23,12,59,19.70
2007,08,23,13,00,19.70
2007,08,23,13,01,19.60
2007,08,23,13,02,19.50
2007,08,23,13,03,19.50
2007,08,23,13,04,19.50
2007,08,23,13,05,19.50
2007,08,23,13,06,19.50
2007,08,23,13,07,19.60
2007,08,23,13,08,19.70
2007,08,23,13,09,19.80
2007,08,23,13,10,19.80
2007,08,23,13,11,19.90
2007,08,23,13,12,20.10
2007,08,23,13,13,20.20
2007,08,23,13,14,20.30
2007,08,23,13,15,20.30
2007,08,23,13,16,20.30
2007,08,23,13,17,20.30
2007,08,23,13,18,20.30
2007,08,23,13,19,20.30
2007,08,23,13,20,20.30
2007,08,23,13,21,20.30
2007,08,23,13,22,20.40
2007,08,23,13,23,20.30
2007,08,23,13,24,20.20
2007,08,23,13,25,20.20
2007,08,23,13,26,20.20
2007,08,23,13,27,20.20
2007,08,23,13,28,20.20
2007,08,23,13,29,20.30
2007,08,23,13,30,20.30
2007,08,23,13,31,20.40
2007,08,23,13,32,20.30
2007,08,23,13,33,20.30
2007,08,23,13,34,20.30
2007,08,23,13,35,20.20
2007,08,23,13,36,20.20
2007,08,23,13,37,20.20
2007,08,23,13,38,20.20
2007,08,23,13,39,20.30
2007,08,23,13,40,20.20
2007,08,23,13,41,20.20
2007,08,23,13,42,20.20
2007,08,23,13,43,20.20
2007,08,23,13,44,20.30
2007,08,23,13,45,20.30
2007,08,23,13,46,20.30
2007,08,23,13,47,20.40
2007,08,23,13,48,20.50
2007,08,23,13,49,20.60
2007,08,23,13,50,20.60
2007,08,23,13,51,20.70
2007,08,23,13,52,20.60
2007,08,23,13,53,20.50
2007,08,23,13,54,20.40
2007,08,23,13,55,20.30
2007,08,23,13,56,20.30
2007,08,23,13,57,20.20
2007,08,23,13,58,20.20
2007,08,23,13,59,20.10
2007,08,23,14,00,20.10
2007,08,23,14,01,20.20
2007,08,23,14,02,20.30
2007,08,23,14,03,20.40
2007,08,23,14,04,20.40
2007,08,23,14,05,20.40
2007,08,23,14,06,20.30
2007,08,23,14,07,20.30
2007,08,23,14,08,20.40
2007,08,23,14,09,20.40
2007,08,23,14,10,20.40
2007,08,23,14,11,20.40
2007,08,23,14,12,20.50
2007,08,23,14,13,20.70
2007,08,23,14,14,20.80
2007,08,23,14,15,20.80
2007,08,23,14,16,20.90
2007,08,23,14,17,20.90
2007,08,23,14,18,20.80
2007,08,23,14,19,20.70
2007,08,23,14,20,20.70
2007,08,23,14,21,20.70
2007,08,23,14,22,20.70
2007,08,23,14,23,20.70
2007,08,23,14,24,20.90
2007,08,23,14,25,21.00
2007,08,23,14,26,21.00
2007,08,23,14,27,21.10
2007,08,23,14,28,21.10
2007,08,23,14,29,21.10
2007,08,23,14,30,21.10
2007,08,23,14,31,21.10
2007,08,23,14,32,21.00
2007,08,23,14,33,21.00
2007,08,23,14,34,20.80
2007,08,23,14,35,20.80
2007,08,23,14,36,20.80
2007,08,23,14,37,20.80
2007,08,23,14,38,20.80
2007,08,23,14,39,20.90
2007,08,23,14,40,21.00
2007,08,23,14,41,21.10
2007,08,23,14,42,21.20
2007,08,23,14,43,21.30
2007,08,23,14,44,21.40
2007,08,23,14,45,21.40
2007,08,23,14,46,21.50
2007,08,23,14,47,21.50
2007,08,23,14,48,21.40
2007,08,23,14,49,21.40
2007,08,23,14,50,21.20
2007,08,23,14,51,21.00
2007,08,23,14,52,20.90
2007,08,23,14,53,20.80
2007,08,23,14,54,20.80
2007,08,23,14,55,20.70
2007,08,23,14,56,20.60
2007,08,23,14,57,20.60
2007,08,23,14,58,20.60
2007,08,23,14,59,20.70
2007,08,23,15,00,20.80
2007,08,23,15,01,20.80
2007,08,23,15,02,20.90
2007,08,23,15,03,21.00
2007,08,23,15,04,21.20
2007,08,23,15,05,21.30
2007,08,23,15,06,21.40
2007,08,23,15,07,21.30
2007,08,23,15,08,21.20
2007,08,23,15,09,21.10
2007,08,23,15,10,21.20
2007,08,23,15,11,21.20
2007,08,23,15,12,21.20
2007,08,23,15,13,21.20
2007,08,23,15,14,21.20
2007,08,23,15,15,21.20
2007,08,23,15,16,21.10
2007,08,23,15,17,21.10
2007,08,23,15,18,21.10
2007,08,23,15,19,21.10
2007,08,23,15,20,21.10
2007,08,23,15,21,21.10
2007,08,23,15,22,21.20
2007,08,23,15,23,21.20
2007,08,23,15,24,21.20
2007,08,23,15,25,21.10
2007,08,23,15,26,21.00
2007,08,23,15,27,20.90
2007,08,23,15,28,20.80
2007,08,23,15,29,20.80
2007,08,23,15,30,20.80
2007,08,23,15,31,20.90
2007,08,23,15,32,21.00
2007,08,23,15,33,21.10
2007,08,23,15,34,21.20
2007,08,23,15,35,21.10
2007,08,23,15,36,21.20
2007,08,23,15,37,21.20
2007,08,23,15,38,21.30
2007,08,23,15,39,21.30
2007,08,23,15,40,21.30
2007,08,23,15,41,21.20
2007,08,23,15,42,21.30
2007,08,23,15,43,21.30
2007,08,23,15,44,21.30
2007,08,23,15,45,21.40
2007,08,23,15,46,21.40
2007,08,23,15,47,21.50
2007,08,23,15,48,21.50
2007,08,23,15,49,21.50
2007,08,23,15,50,21.60
2007,08,23,15,51,21.60
2007,08,23,15,52,21.70
2007,08,23,15,53,21.70
2007,08,23,15,54,21.80
2007,08,23,15,55,21.80
2007,08,23,15,56,21.80
2007,08,23,15,57,21.80
2007,08,23,15,58,21.80
2007,08,23,15,59,21.80
2007,08,23,16,00,21.90
2007,08,23,16,01,22.10
2007,08,23,16,02,22.10
2007,08,23,16,03,22.20
2007,08,23,16,04,22.30
2007,08,23,16,05,22.30
2007,08,23,16,06,22.30
2007,08,23,16,07,22.30
2007,08,23,16,08,22.30
2007,08,23,16,09,22.30
2007,08,23,16,10,22.30
2007,08,23,16,11,22.40
2007,08,23,16,12,22.50
2007,08,23,16,13,22.60
2007,08,23,16,14,22.70
2007,08,23,16,15,22.80
2007,08,23,16,16,22.90
2007,08,23,16,17,23.00
2007,08,23,16,18,23.20
2007,08,23,16,19,23.30
2007,08,23,16,20,23.40
2007,08,23,16,21,23.50
2007,08,23,16,22,23.50
2007,08,23,16,23,23.50
2007,08,23,16,24,23.40
2007,08,23,16,25,23.40
2007,08,23,16,26,23.30
2007,08,23,16,27,23.30
2007,08,23,16,28,23.20
2007,08,23,16,29,23.10
2007,08,23,16,30,23.00
2007,08,23,16,31,22.90
2007,08,23,16,32,23.00
2007,08,23,16,33,23.00
2007,08,23,16,34,23.10
2007,08,23,16,35,23.30
2007,08,23,16,36,23.40
2007,08,23,16,37,23.60
2007,08,23,16,38,23.80
2007,08,23,16,39,24.00
2007,08,23,16,40,24.10
2007,08,23,16,41,24.20
2007,08,23,16,42,24.20
2007,08,23,16,43,24.30
2007,08,23,16,44,24.30
2007,08,23,16,45,24.40
2007,08,23,16,46,24.40
2007,08,23,16,47,24.40
2007,08,23,16,48,24.40
2007,08,23,16,49,24.50
2007,08,23,16,50,24.60
2007,08,23,16,51,24.60
2007,08,23,16,52,24.70
2007,08,23,16,53,24.80
2007,08,23,16,54,24.80
2007,08,23,16,55,24.80
2007,08,23,16,56,24.80
2007,08,23,16,57,24.80
2007,08,23,16,58,24.80
2007,08,23,16,59,24.70
2007,08,23,17,00,24.70
2007,08,23,17,01,24.70
2007,08,23,17,02,24.70
2007,08,23,17,03,24.70
2007,08,23,17,04,24.70
2007,08,23,17,05,24.80
2007,08,23,17,06,24.80
2007,08,23,17,07,24.80
2007,08,23,17,08,24.80
2007,08,23,17,09,24.80
2007,08,23,17,10,24.80
2007,08,23,17,11,24.80
2007,08,23,17,12,24.80
2007,08,23,17,13,24.80
2007,08,23,17,14,24.80
2007,08,23,17,15,24.80
2007,08,23,17,16,24.80
2007,08,23,17,17,24.80
2007,08,23,17,18,24.80
2007,08,23,17,19,24.80